Regional Weather Roundup
Issued by NWS

Home | Current Version | Previous Version | Text Only | Print | Product List | Glossary On
Versions: 1 2 3 4 5 6 7 8 9 10 11 12 13 14 15 16 17 18 19 20 21 22 23 24 25 26 27 28 29 30 31 32 33 34 35 36 37 38 39 40 41 42 43 44 45 46 47 48 49 50
444
ASUS43 KBIS 070602
RWRND

NORTH DAKOTA REGIONAL WEATHER ROUNDUP
NATIONAL WEATHER SERVICE BISMARCK ND
1200 AM CST SUN FEB 07 2016

NOTE: "FAIR" INDICATES FEW OR NO CLOUDS BELOW 12,000 FEET WITH NO
SIGNIFICANT WEATHER AND/OR OBSTRUCTIONS TO VISIBILITY.


NDZ001>003-009>011-017-070700-
NORTHWEST NORTH DAKOTA

CITY           SKY/WX    TMP DP  RH WIND       PRES   REMARKS
WILLISTON      CLEAR     35  26  69 W20G25    29.82R
6HR MIN TEMP:  35; 6HR MAX TEMP:  41;

MINOT          LGT RAIN  40  21  46 W31G40    29.65R
MINOT AFB      CLOUDY    37  24  58 NW30G39   29.63R
$$

NDZ018>021-031>035-040>046-070700-
SOUTHWEST NORTH DAKOTA

CITY           SKY/WX    TMP DP  RH WIND       PRES   REMARKS
BISMARCK       CLEAR     41  21  44 W22G30    29.77R
6HR MIN TEMP:  41; 6HR MAX TEMP:  50;

DICKINSON      CLEAR     34  23  64 W23G31    29.84R
GARRISON         N/A     36  21  54 NW25G35   29.71R
6HR MIN TEMP:  36; 6HR MAX TEMP:  45;

HETTINGER ARPT PTCLDY    35  22  58 W24G30    29.91R
$$

NDZ004>008-012>016-024-026-027-054-070700-
NORTHEAST NORTH DAKOTA

CITY           SKY/WX    TMP DP  RH WIND       PRES   REMARKS
GRAND FORKS    CLOUDY    38  32  79 W23       29.46S
GRND FRKS AFB  CLOUDY    38  33  80 W18G28    29.47S
DEVILS LAKE    LGT SNOW  33  32  96 W30G38    29.51S FOG     WCI  19
$$

NDZ022-023-025-028>030-036>039-047>053-070700-
SOUTHEAST NORTH DAKOTA

CITY           SKY/WX    TMP DP  RH WIND       PRES   REMARKS
FARGO          CLOUDY    39  32  76 W20G29    29.55F
6HR MIN TEMP:  37; 6HR MAX TEMP:  40;

JAMESTOWN      CLOUDY    37  30  75 NW25G41   29.60S
$$





USA.gov is the U.S. government's official web portal to all federal, state and local government web resources and services.